Time,TemperatureF,DewpointF,PressureIn,WindDirection,WindDirectionDegrees,WindSpeedMPH,WindSpeedGustMPH,Humidity,HourlyPrecipIn,Conditions,Clouds,dailyrainin,SolarRadiationWatts/m^2,SoftwareType,DateUTC
2013-05-03 00:02:00,66.0,62.0,-100.00,NE,34,0.0,0.0,88,0.00,,,0.25,0.000000,,2013-05-03 10:02:00,
2013-05-03 00:12:00,66.0,62.0,-100.00,NE,34,0.0,0.0,88,0.00,,,0.25,0.000000,,2013-05-03 10:12:00,
2013-05-03 00:22:00,66.0,62.0,-100.00,NE,34,0.0,0.0,88,0.00,,,0.25,0.000000,,2013-05-03 10:22:00,
2013-05-03 00:32:00,66.0,62.0,-100.00,NE,34,0.0,0.0,88,0.00,,,0.25,0.000000,,2013-05-03 10:32:00,
2013-05-03 00:52:00,66.0,62.0,-100.00,North,354,0.0,0.0,86,0.00,,,0.25,0.000000,,2013-05-03 10:52:00,
2013-05-03 01:02:00,66.0,62.0,-100.00,North,354,0.0,0.0,86,0.00,,,0.25,0.000000,,2013-05-03 11:02:00,
2013-05-03 01:11:00,66.0,62.0,-100.00,North,354,0.0,0.0,86,0.00,,,0.25,0.000000,,2013-05-03 11:11:00,
2013-05-03 01:21:00,66.0,62.0,-100.00,North,354,0.0,0.0,86,0.00,,,0.25,0.000000,,2013-05-03 11:21:00,
2013-05-03 01:31:00,66.0,62.0,-100.00,North,354,0.0,0.0,86,0.00,,,0.25,0.000000,,2013-05-03 11:31:00,
2013-05-03 01:52:00,66.0,62.0,-100.00,ENE,71,0.0,0.0,87,0.00,,,0.25,0.000000,,2013-05-03 11:52:00,
2013-05-03 02:01:00,66.0,62.0,-100.00,ENE,71,0.0,0.0,87,0.00,,,0.25,0.000000,,2013-05-03 12:01:00,
2013-05-03 02:11:00,66.0,62.0,-100.00,ENE,71,0.0,0.0,87,0.00,,,0.25,0.000000,,2013-05-03 12:11:00,
2013-05-03 02:21:00,66.0,62.0,-100.00,ENE,71,0.0,0.0,87,0.00,,,0.25,0.000000,,2013-05-03 12:21:00,
2013-05-03 02:32:00,66.0,62.0,-100.00,ENE,71,0.0,0.0,87,0.00,,,0.25,0.000000,,2013-05-03 12:32:00,
2013-05-03 03:01:00,66.0,62.0,-100.00,NNE,27,0.0,0.0,87,0.00,,,-99.99,0.000000,,2013-05-03 13:01:00,
2013-05-03 03:11:00,66.0,62.0,-100.00,NNE,27,0.0,0.0,87,0.00,,,-99.99,0.000000,,2013-05-03 13:11:00,
2013-05-03 03:22:00,66.0,62.0,-100.00,NNE,27,0.0,0.0,87,0.00,,,-99.99,0.000000,,2013-05-03 13:22:00,
2013-05-03 03:31:00,66.0,62.0,-100.00,NNE,27,0.0,0.0,87,0.00,,,-99.99,0.000000,,2013-05-03 13:31:00,
2013-05-03 04:02:00,66.0,61.0,-100.00,NNE,17,0.0,0.0,84,0.00,,,-99.99,0.000000,,2013-05-03 14:02:00,
2013-05-03 04:11:00,66.0,61.0,-100.00,NNE,17,0.0,0.0,84,0.00,,,-99.99,0.000000,,2013-05-03 14:11:00,
2013-05-03 04:21:00,66.0,61.0,-100.00,NNE,17,0.0,0.0,84,0.00,,,-99.99,0.000000,,2013-05-03 14:21:00,
2013-05-03 04:31:00,66.0,61.0,-100.00,NNE,17,0.0,0.0,84,0.00,,,-99.99,0.000000,,2013-05-03 14:31:00,
2013-05-03 05:01:00,65.0,60.0,-100.00,NNE,20,0.0,0.0,84,0.00,,,0.25,0.000000,,2013-05-03 15:01:00,
2013-05-03 05:11:00,65.0,60.0,-100.00,NNE,20,0.0,0.0,84,0.00,,,0.25,0.000000,,2013-05-03 15:11:00,
2013-05-03 05:22:00,65.0,60.0,-100.00,NNE,20,0.0,0.0,84,0.00,,,0.25,0.000000,,2013-05-03 15:22:00,
2013-05-03 05:32:00,65.0,60.0,-100.00,NNE,20,0.0,0.0,84,0.00,,,0.25,0.000000,,2013-05-03 15:32:00,
2013-05-03 06:03:00,64.0,60.0,-100.00,ENE,73,0.0,0.0,86,0.00,,,0.25,0.000000,,2013-05-03 16:03:00,
2013-05-03 06:12:00,64.0,60.0,-100.00,ENE,73,0.0,0.0,86,0.00,,,0.25,0.000000,,2013-05-03 16:12:00,
2013-05-03 06:22:00,64.0,60.0,-100.00,ENE,73,0.0,0.0,86,0.00,,,0.25,0.000000,,2013-05-03 16:22:00,
2013-05-03 06:32:00,64.0,60.0,-100.00,ENE,73,0.0,0.0,86,0.00,,,0.25,0.000000,,2013-05-03 16:32:00,
2013-05-03 07:02:00,63.0,59.0,-100.00,NNE,28,0.0,0.0,88,0.00,,,0.25,8.000000,,2013-05-03 17:02:00,
2013-05-03 07:12:00,63.0,59.0,-100.00,NNE,28,0.0,0.0,88,0.00,,,0.25,8.000000,,2013-05-03 17:12:00,
2013-05-03 07:22:00,63.0,59.0,-100.00,NNE,28,0.0,0.0,88,0.00,,,0.25,8.000000,,2013-05-03 17:22:00,
2013-05-03 07:31:00,63.0,59.0,-100.00,NNE,28,0.0,0.0,88,0.00,,,0.25,8.000000,,2013-05-03 17:31:00,
2013-05-03 07:52:00,69.0,63.0,-100.00,ESE,119,0.0,0.0,81,0.00,,,0.25,167.000000,,2013-05-03 17:52:00,
2013-05-03 08:01:00,69.0,63.0,-100.00,ESE,119,0.0,0.0,81,0.00,,,0.25,167.000000,,2013-05-03 18:01:00,
2013-05-03 08:12:00,69.0,63.0,-100.00,ESE,119,0.0,0.0,81,0.00,,,0.25,167.000000,,2013-05-03 18:12:00,
2013-05-03 08:21:00,69.0,63.0,-100.00,ESE,119,0.0,0.0,81,0.00,,,0.25,167.000000,,2013-05-03 18:21:00,
2013-05-03 08:31:00,69.0,63.0,-100.00,ESE,119,0.0,0.0,81,0.00,,,0.25,167.000000,,2013-05-03 18:31:00,
2013-05-03 08:52:00,70.0,64.0,-100.00,SE,141,0.0,0.0,80,0.00,,,0.25,379.000000,,2013-05-03 18:52:00,
2013-05-03 09:01:00,70.0,64.0,-100.00,SE,141,0.0,0.0,80,0.00,,,0.25,379.000000,,2013-05-03 19:01:00,
2013-05-03 09:11:00,70.0,64.0,-100.00,SE,141,0.0,0.0,80,0.00,,,0.25,379.000000,,2013-05-03 19:11:00,
2013-05-03 09:21:00,70.0,64.0,-100.00,SE,141,0.0,0.0,80,0.00,,,0.25,379.000000,,2013-05-03 19:21:00,
2013-05-03 09:31:00,70.0,64.0,-100.00,SE,141,0.0,0.0,80,0.00,,,0.25,379.000000,,2013-05-03 19:31:00,
2013-05-03 10:02:00,70.0,62.0,-100.00,SW,226,0.0,0.0,77,0.00,,,0.25,451.000000,,2013-05-03 20:02:00,
2013-05-03 10:11:00,70.0,62.0,-100.00,SW,226,0.0,0.0,77,0.00,,,0.25,451.000000,,2013-05-03 20:11:00,
2013-05-03 10:21:00,70.0,62.0,-100.00,SW,226,0.0,0.0,77,0.00,,,0.25,451.000000,,2013-05-03 20:21:00,
2013-05-03 10:31:00,70.0,62.0,-100.00,SW,226,0.0,0.0,77,0.00,,,0.25,451.000000,,2013-05-03 20:31:00,
2013-05-03 11:01:00,70.0,63.0,-100.00,SW,220,1.0,6.0,79,0.00,,,0.25,518.000000,,2013-05-03 21:01:00,
2013-05-03 11:11:00,70.0,63.0,-100.00,SW,220,1.0,6.0,79,0.00,,,0.25,518.000000,,2013-05-03 21:11:00,
2013-05-03 11:21:00,70.0,63.0,-100.00,SW,220,1.0,6.0,79,0.00,,,0.25,518.000000,,2013-05-03 21:21:00,
2013-05-03 11:32:00,70.0,63.0,-100.00,SW,220,1.0,6.0,79,0.00,,,0.25,518.000000,,2013-05-03 21:32:00,
2013-05-03 12:02:00,68.0,65.0,-100.00,SSW,192,0.0,7.0,91,0.09,,,0.34,182.000000,,2013-05-03 22:02:00,
2013-05-03 12:12:00,68.0,65.0,-100.00,SSW,192,0.0,7.0,91,0.09,,,0.34,182.000000,,2013-05-03 22:12:00,
2013-05-03 12:22:00,68.0,65.0,-100.00,SSW,192,0.0,7.0,91,0.09,,,0.34,182.000000,,2013-05-03 22:22:00,
2013-05-03 12:32:00,68.0,65.0,-100.00,SSW,192,0.0,7.0,91,0.09,,,0.34,182.000000,,2013-05-03 22:32:00,
2013-05-03 13:01:00,67.0,65.0,-100.00,WSW,238,1.0,8.0,93,0.14,,,0.48,85.000000,,2013-05-03 23:01:00,
2013-05-03 13:11:00,67.0,65.0,-100.00,WSW,238,1.0,8.0,93,0.14,,,0.48,85.000000,,2013-05-03 23:11:00,
2013-05-03 13:21:00,67.0,65.0,-100.00,WSW,238,1.0,8.0,93,0.14,,,0.48,85.000000,,2013-05-03 23:21:00,
2013-05-03 13:31:00,67.0,65.0,-100.00,WSW,238,1.0,8.0,93,0.14,,,0.48,85.000000,,2013-05-03 23:31:00,
2013-05-03 14:01:00,66.0,64.0,-100.00,SSE,155,0.0,2.0,92,0.07,,,0.55,120.000000,,2013-05-04 00:01:00,
2013-05-03 14:11:00,66.0,64.0,-100.00,SSE,155,0.0,2.0,92,0.07,,,0.55,120.000000,,2013-05-04 00:11:00,
2013-05-03 14:22:00,66.0,64.0,-100.00,SSE,155,0.0,2.0,92,0.07,,,0.55,120.000000,,2013-05-04 00:22:00,
2013-05-03 14:31:00,66.0,64.0,-100.00,SSE,155,0.0,2.0,92,0.07,,,0.55,120.000000,,2013-05-04 00:31:00,
2013-05-03 15:01:00,67.0,65.0,-100.00,South,172,0.0,0.0,93,0.06,,,0.61,180.000000,,2013-05-04 01:01:00,
2013-05-03 15:11:00,67.0,65.0,-100.00,South,172,0.0,0.0,93,0.06,,,0.61,180.000000,,2013-05-04 01:11:00,
2013-05-03 15:21:00,67.0,65.0,-100.00,South,172,0.0,0.0,93,0.06,,,0.61,180.000000,,2013-05-04 01:21:00,
2013-05-03 15:31:00,67.0,65.0,-100.00,South,172,0.0,0.0,93,0.06,,,0.61,180.000000,,2013-05-04 01:31:00,
2013-05-03 16:02:00,67.0,64.0,-100.00,SSE,150,0.0,5.0,90,0.00,,,0.61,305.000000,,2013-05-04 02:02:00,
2013-05-03 16:11:00,67.0,64.0,-100.00,SSE,150,0.0,5.0,90,0.00,,,0.61,305.000000,,2013-05-04 02:11:00,
2013-05-03 16:21:00,67.0,64.0,-100.00,SSE,150,0.0,5.0,90,0.00,,,0.61,305.000000,,2013-05-04 02:21:00,
2013-05-03 16:32:00,67.0,64.0,-100.00,SSE,150,0.0,5.0,90,0.00,,,0.61,305.000000,,2013-05-04 02:32:00,
2013-05-03 16:52:00,68.0,64.0,-100.00,SE,145,0.0,2.0,87,0.00,,,0.55,211.000000,,2013-05-04 02:52:00,
2013-05-03 17:02:00,68.0,64.0,-100.00,SE,145,0.0,2.0,87,0.00,,,0.55,211.000000,,2013-05-04 03:02:00,
2013-05-03 17:11:00,68.0,64.0,-100.00,SE,145,0.0,2.0,87,0.00,,,0.55,211.000000,,2013-05-04 03:11:00,
2013-05-03 17:21:00,68.0,64.0,-100.00,SE,145,0.0,2.0,87,0.00,,,0.55,211.000000,,2013-05-04 03:21:00,
2013-05-03 17:32:00,68.0,64.0,-100.00,SE,145,0.0,2.0,87,0.00,,,0.55,211.000000,,2013-05-04 03:32:00,
2013-05-03 18:02:00,68.0,63.0,-100.00,South,185,0.0,4.0,84,0.00,,,0.49,225.000000,,2013-05-04 04:02:00,
2013-05-03 18:12:00,68.0,63.0,-100.00,South,185,0.0,4.0,84,0.00,,,0.49,225.000000,,2013-05-04 04:12:00,
2013-05-03 18:22:00,68.0,63.0,-100.00,South,185,0.0,4.0,84,0.00,,,0.49,225.000000,,2013-05-04 04:22:00,
2013-05-03 18:32:00,68.0,63.0,-100.00,South,185,0.0,4.0,84,0.00,,,0.49,225.000000,,2013-05-04 04:32:00,
2013-05-03 19:02:00,67.0,63.0,-100.00,SE,144,0.0,2.0,86,0.00,,,0.42,86.000000,,2013-05-04 05:02:00,
2013-05-03 19:11:00,67.0,63.0,-100.00,SE,144,0.0,2.0,86,0.00,,,0.42,86.000000,,2013-05-04 05:11:00,
2013-05-03 19:21:00,67.0,63.0,-100.00,SE,144,0.0,2.0,86,0.00,,,0.42,86.000000,,2013-05-04 05:21:00,
2013-05-03 19:32:00,67.0,63.0,-100.00,SE,144,0.0,2.0,86,0.00,,,0.42,86.000000,,2013-05-04 05:32:00,
2013-05-03 19:52:00,66.0,62.0,-100.00,ESE,114,0.0,0.0,87,0.00,,,0.37,9.000000,,2013-05-04 05:52:00,
2013-05-03 20:01:00,66.0,62.0,-100.00,ESE,114,0.0,0.0,87,0.00,,,0.37,9.000000,,2013-05-04 06:01:00,
2013-05-03 20:11:00,66.0,62.0,-100.00,ESE,114,0.0,0.0,87,0.00,,,0.37,9.000000,,2013-05-04 06:11:00,
2013-05-03 20:21:00,66.0,62.0,-100.00,ESE,114,0.0,0.0,87,0.00,,,0.37,9.000000,,2013-05-04 06:21:00,
2013-05-03 20:32:00,66.0,62.0,-100.00,ESE,114,0.0,0.0,87,0.00,,,0.37,9.000000,,2013-05-04 06:32:00,
2013-05-03 20:52:00,65.0,62.0,-100.00,NNE,32,0.0,0.0,89,0.00,,,0.36,0.000000,,2013-05-04 06:52:00,
2013-05-03 21:01:00,65.0,62.0,-100.00,NNE,32,0.0,0.0,89,0.00,,,0.36,0.000000,,2013-05-04 07:01:00,
2013-05-03 21:11:00,65.0,62.0,-100.00,NNE,32,0.0,0.0,89,0.00,,,0.36,0.000000,,2013-05-04 07:11:00,
2013-05-03 21:21:00,65.0,62.0,-100.00,NNE,32,0.0,0.0,89,0.00,,,0.36,0.000000,,2013-05-04 07:21:00,
2013-05-03 21:31:00,65.0,62.0,-100.00,NNE,32,0.0,0.0,89,0.00,,,0.36,0.000000,,2013-05-04 07:31:00,
2013-05-03 22:01:00,65.0,62.0,-100.00,North,2,0.0,0.0,89,0.00,,,0.36,0.000000,,2013-05-04 08:01:00,
2013-05-03 22:11:00,65.0,62.0,-100.00,North,2,0.0,0.0,89,0.00,,,0.36,0.000000,,2013-05-04 08:11:00,
2013-05-03 22:21:00,65.0,62.0,-100.00,North,2,0.0,0.0,89,0.00,,,0.36,0.000000,,2013-05-04 08:21:00,
2013-05-03 22:31:00,65.0,62.0,-100.00,North,2,0.0,0.0,89,0.00,,,0.36,0.000000,,2013-05-04 08:31:00,
2013-05-03 22:52:00,65.0,62.0,-100.00,NNE,19,0.0,3.0,89,0.00,,,0.36,0.000000,,2013-05-04 08:52:00,
2013-05-03 23:02:00,65.0,62.0,-100.00,NNE,19,0.0,3.0,89,0.00,,,0.36,0.000000,,2013-05-04 09:02:00,
2013-05-03 23:11:00,65.0,62.0,-100.00,NNE,19,0.0,3.0,89,0.00,,,0.36,0.000000,,2013-05-04 09:11:00,
2013-05-03 23:21:00,65.0,62.0,-100.00,NNE,19,0.0,3.0,89,0.00,,,0.36,0.000000,,2013-05-04 09:21:00,
2013-05-03 23:32:00,65.0,62.0,-100.00,NNE,19,0.0,3.0,89,0.00,,,0.36,0.000000,,2013-05-04 09:32:00,